Home   Weather   Clacton-on-Sea   Past weeks
Flag for United Kingdom

Past Weather in Clacton-on-Sea, England, United Kingdom — Yesterday and Last 2 Weeks

Now
51 °F

Cool.


Feels Like: 47 °F
Forecast: N/A
Wind: 9 mph from Southwest

Location: Shoeburyness

Current Time: Mar 22, 2019 at 2:54:37 pm

Latest Report: Mar 22, 2019 at 1:00 pm


Visibility: 8 mi

Pressure: 30.36 "Hg

Humidity: 82%

Dew Point: 45 °F

Location of Clacton-on-SeaLocation

Past Weather in Clacton-on-Sea — Graph

°F

Clacton-on-Sea Temperature Yesterday

Maximum temperature yesterday: 54 °F (at 1:00 pm)
Minimum temperature yesterday: 48 °F (at 6:00 am)
Average temperature yesterday: 50 °F

High & Low Weather Summary for the Past Weeks

 TemperatureHumidityPressure
High59 °F (Mar 15, 1:00 pm)97% (Mar 15, 2:00 am)30.53 "Hg (Mar 15, 2:00 am)
Low35 °F (Mar 10, 8:00 pm)39% (Mar 10, 5:00 pm)29.26 "Hg (Mar 7, 1:00 pm)
Average47 °F78%29.95 "Hg
* Reported Mar 7 1:00 pm — Mar 22 1:00 pm, Clacton-on-Sea. Weather by CustomWeather, © 2019

Note: Actual official high and low records may vary slightly from our data, if they occured in-between our weather recording intervals... More about our weather records

Advertising

Clacton-on-Sea Weather History for the Previous 24 Hours

Scroll right to see more
 ConditionsComfort  
Time TempWeatherWind HumidityBarometerVisibility
1:00 pm
Fri, Mar 22
51 °FCool.9 mph82%30.36 "Hg8 mi
12:00 pm50 °FCool.8 mph83%30.38 "Hg8 mi
11:00 am49 °FCool.8 mph84%30.40 "Hg7 mi
10:00 am48 °FCool.10 mph87%30.40 "Hg7 mi
9:00 am47 °FSmoke.12 mph88%30.40 "Hg6 mi
8:00 am47 °FSmoke.10 mph88%30.41 "Hg6 mi
7:00 am47 °FSmoke.8 mph88%30.41 "Hg4 mi
6:00 am47 °FSmoke.7 mph89%30.41 "Hg5 mi
5:00 am47 °FSmoke.7 mph89%30.41 "Hg5 mi
4:00 am48 °FSmoke.8 mph88%30.42 "Hg5 mi
3:00 am48 °FSmoke.8 mph89%30.43 "Hg6 mi
2:00 am49 °FSmoke.6 mph90%30.44 "Hg6 mi
1:00 am49 °FSmoke.6 mph90%30.44 "Hg5 mi
12:00 am49 °FCool.6 mph93%30.45 "Hg4 mi
11:00 pm
Thu, Mar 21
48 °FCool.8 mph93%30.47 "Hg3 mi
10:00 pm49 °FLight rain. Overcast.6 mph93%30.48 "Hg2 mi
2:00 pm54 °FCool.7 mph79%30.51 "Hg25 mi
Weather by CustomWeather, © 2019

See weather overview